This demonstration page uses our WeatherBlox Daily Observations layout. Learn more.

Left ArrowRight Arrow

36.19886, -115.1175

Hourly Observations for August 22, 2015

Temp ( °F °C ) Dew Point ( °F °C ) Humidity (%) Winds ( mph kmh ) Pressure ( in mb ) Visibility ( mi km ) Precip ( " mm )
12:53 am 00:53 Clear 91 32.8 45 7.2 20 20 SSW 9 15 29.72 1007 10 16 0.00 0.00
1:53 am 01:53 Clear 90 32.2 40 4.4 17 17 SSW 8 13 29.73 1007 10 16 0.00 0.00
2:53 am 02:53 Clear 86 30 43 6.1 22 22 E 8 13 29.74 1007 10 16 0.00 0.00
3:53 am 03:53 Clear 83 28.3 41 5 23 23 ESE 8 13 29.75 1008 10 16 0.00 0.00
4:53 am 04:53 Clear 83 28.3 40 4.4 22 22 E 6 9 29.77 1008 10 16 0.00 0.00
5:53 am 05:53 Clear 83 28.3 44 6.7 25 25 E 6 9 29.79 1009 10 16 0.00 0.00
6:53 am 06:53 Sunny 81 27.2 52 11.1 37 37 E 8 13 29.82 1010 10 16 0.00 0.00
7:53 am 07:53 Sunny 85 29.4 57 13.9 39 39 ESE 9 15 29.84 1011 10 16 0.00 0.00
8:53 am 08:53 Sunny 88 31.1 57 13.9 35 35 SE 12 19 29.86 1011 10 16 0.00 0.00
9:53 am 09:53 Sunny 91 32.8 53 11.7 27 27 SE 10 17 29.86 1011 10 16 0.00 0.00
10:53 am 10:53 Sunny 94 34.4 52 11.1 24 24 SSE 13 20 29.86 1011 10 16 0.00 0.00
11:53 am 11:53 Sunny 96 35.6 49 9.4 20 20 SSE 12 19 29.85 1011 10 16 0.00 0.00
12:53 pm 12:53 Sunny 99 37.2 48 8.9 18 18 S 13 20 29.83 1010 10 16 0.00 0.00
1:53 pm 13:53 Sunny 100 37.8 49 9.4 18 18 SSE 14 22 29.81 1009 10 16 0.00 0.00
2:53 pm 14:53 Sunny 101 38.3 49 9.4 17 17 S 12 19 29.78 1009 10 16 0.00 0.00
3:53 pm 15:53 Sunny 103 39.4 50 10 17 17 SE 16 26 29.76 1008 10 16 0.00 0.00
4:53 pm 16:53 Sunny 102 38.9 48 8.9 16 16 SE 13 20 29.74 1007 10 16 0.00 0.00
5:53 pm 17:53 Sunny 102 38.9 45 7.2 14 14 ESE 13 20 29.73 1007 10 16 0.00 0.00
6:53 pm 18:53 Sunny 101 38.3 41 5 13 13 SSW 10 17 29.74 1007 10 16 0.00 0.00
7:53 pm 19:53 Clear 99 37.2 35 1.7 11 11 W 12 19 29.76 1008 10 16 0.00 0.00
8:53 pm 20:53 Clear 97 36.1 32 0 10 10 WSW 8 13 29.79 1009 10 16 0.00 0.00
9:53 pm 21:53 Clear 94 34.4 35 1.7 13 13 S 7 11 29.81 1010 10 16 0.00 0.00
10:53 pm 22:53 Clear 92 33.3 37 2.8 14 14 S 9 15 29.82 1010 10 16 0.00 0.00
11:53 pm 23:53 Clear 90 32.2 38 3.3 16 16 S 6 9 29.83 1010 10 16 0.00 0.00

Powered by AerisWeather